Location: Br�znic
(45.9167°N, 22.6500°E)
Time: 14:00:59
(UTC+00:00)

MOS 1 Rocket - Pass Details

Date: 03 March 2021
Orbit: 615 x 829 km, 97.4° (Epoch: 15 April)

Event Time Altitude Azimuth Distance (km) Brightness Sun altitude
Rises 16:53:12 0° 9° (N) 3,177 6.6 -6.8°
Reaches altitude 10° 16:55:28 10° 6° (N) 2,281 5.9 -7.2°
Maximum altitude 17:00:27 63° 287° (WNW) 869 4.1 -8.0°
Drops below altitude 10° 17:05:40 10° 207° (SSW) 2,381 6.4 -8.9°
Sets 17:08:04 0° 204° (SSW) 3,327 7.1 -9.4°
